Change the Weather History Date:

Wednesday, November 20, 2013

  Actual Average Record
Temperature  
Mean Temperature 40 °F -  
Max Temperature 48 °F 45 °F 71 °F (2003)
Min Temperature 33 °F 26 °F 6 °F (1985)
Degree Days  
Heating Degree Days 24    
Moisture  
Dew Point 33 °F    
Average Humidity 80    
Maximum Humidity 100    
Minimum Humidity 40    
Precipitation  
Precipitation 0.06 in - - ()
Sea Level Pressure  
Sea Level Pressure 29.92 in    
Wind  
Wind Speed 17 mph (SSE)    
Max Wind Speed 24 mph    
Max Gust Speed 31 mph    
Visibility 9 miles    
Events Rain    
Averages and records for this station are not official NWS values.
T = Trace of Precipitation, MM = Missing Value Source: NWS Daily Summary

Daily Weather History Graph

Daily Weather History Graph

Search for Another Location

Airport or City:

Trip Planner

Search our weather history database for the weather conditions in past years. The results will help you decide how hot, cold, wet, or windy it might be!

Date:

Astronomy

Nov. 20, 2013 Rise Set
Actual Time 7:11 AM CST 4:54 PM CST
Civil Twilight 6:41 AM CST 5:24 PM CST
Nautical Twilight 6:07 AM CST 5:58 PM CST
Astronomical Twilight 5:34 AM CST 6:30 PM CST
Moon 7:38 PM CST (11/20) 9:36 AM CST (11/20)
Length of Visible Light 10h 43m
Length of Day
9h 43m
Waning Gibbous, 91% of the Moon is Illuminated
Nov 20
Waning Gibbous
Nov 25
Last Quarter
Dec 2
New
Dec 9
First Quarter
Dec 17
Full

Hourly Weather History & Observations

Time (CST) Temp. Windchill Dew Point Humidity Pressure Visibility Wind Dir Wind Speed Gust Speed Precip Events Conditions
12:15 AM 48.2 °F - 24.8 °F 40% 29.97 in 10.0 mi SSE 18.4 mph 26.5 mph N/A   Overcast
12:35 AM 48.2 °F - 24.8 °F 40% 29.96 in 10.0 mi SSE 18.4 mph 25.3 mph N/A   Overcast
12:55 AM 46.4 °F 40.1 °F 26.6 °F 46% 29.97 in 10.0 mi South 15.0 mph 23.0 mph N/A   Overcast
1:15 AM 46.4 °F 38.5 °F 26.6 °F 46% 29.94 in 10.0 mi SSE 21.9 mph 28.8 mph N/A   Overcast
1:35 AM 46.4 °F 39.5 °F 26.6 °F 46% 29.95 in 10.0 mi SSE 17.3 mph 27.6 mph N/A   Overcast
1:55 AM 46.4 °F 39.0 °F 24.8 °F 43% 29.94 in 10.0 mi SSE 19.6 mph 27.6 mph N/A   Overcast
2:15 AM 46.4 °F 38.1 °F 24.8 °F 43% 29.94 in 10.0 mi SSE 24.2 mph - N/A   Overcast
2:35 AM 46.4 °F 39.2 °F 24.8 °F 43% 29.95 in 10.0 mi SSE 18.4 mph 26.5 mph N/A   Overcast
2:55 AM 44.6 °F 37.2 °F 28.4 °F 53% 29.95 in 10.0 mi SSE 17.3 mph 25.3 mph N/A   Overcast
3:15 AM 44.6 °F 37.4 °F 28.4 °F 53% 29.95 in 8.0 mi South 16.1 mph 28.8 mph N/A Rain Light Rain
3:35 AM 41.0 °F 33.9 °F 32.0 °F 70% 29.96 in 6.0 mi SSE 12.7 mph 19.6 mph N/A Rain Light Rain
3:55 AM 41.0 °F 32.8 °F 33.8 °F 76% 29.95 in 7.0 mi SSE 16.1 mph 23.0 mph 0.02 in Rain Light Rain
4:15 AM 39.2 °F 30.8 °F 33.8 °F 81% 29.95 in 10.0 mi SSE 15.0 mph - N/A   Overcast
4:35 AM 39.2 °F 30.2 °F 33.8 °F 81% 29.94 in 9.0 mi SSE 17.3 mph - N/A   Overcast
4:55 AM 39.2 °F 30.2 °F 33.8 °F 81% 29.93 in 8.0 mi SSE 17.3 mph - 0.01 in Rain Light Rain
5:15 AM 39.2 °F 30.5 °F 35.6 °F 87% 29.93 in 8.0 mi SSE 16.1 mph 21.9 mph N/A Rain Light Rain
5:35 AM 39.2 °F 30.2 °F 33.8 °F 81% 29.92 in 10.0 mi SSE 17.3 mph - N/A   Overcast
5:55 AM 39.2 °F 29.8 °F 33.8 °F 81% 29.91 in 10.0 mi SSE 18.4 mph 26.5 mph 0.03 in   Overcast
6:15 AM 39.2 °F 29.6 °F 33.8 °F 81% 29.91 in 10.0 mi SSE 19.6 mph 25.3 mph N/A   Overcast
6:35 AM 39.2 °F 29.3 °F 33.8 °F 81% 29.91 in 10.0 mi SSE 20.7 mph - N/A   Overcast
6:55 AM 39.2 °F 29.3 °F 33.8 °F 81% 29.92 in 10.0 mi SSE 20.7 mph 28.8 mph N/A   Overcast
7:15 AM 39.2 °F 29.3 °F 32.0 °F 75% 29.92 in 10.0 mi SSE 20.7 mph 26.5 mph N/A   Mostly Cloudy
7:35 AM 39.2 °F 29.0 °F 33.8 °F 81% 29.93 in 10.0 mi SSE 21.9 mph 31.1 mph N/A   Mostly Cloudy
7:55 AM 37.4 °F 26.9 °F 33.8 °F 87% 29.93 in 10.0 mi SSE 20.7 mph - N/A   Mostly Cloudy
8:15 AM 37.4 °F 26.9 °F 33.8 °F 87% 29.93 in 10.0 mi SSE 20.7 mph - N/A   Overcast
8:35 AM 39.2 °F 29.6 °F 33.8 °F 81% 29.93 in 10.0 mi SSE 19.6 mph 26.5 mph N/A   Overcast
8:55 AM 39.2 °F 28.7 °F 33.8 °F 81% 29.93 in 10.0 mi SSE 23.0 mph - N/A   Overcast
9:15 AM 39.2 °F 28.7 °F 33.8 °F 81% 29.92 in 10.0 mi SSE 23.0 mph 31.1 mph N/A   Overcast
9:35 AM 39.2 °F 29.6 °F 33.8 °F 81% 29.92 in 10.0 mi SSE 19.6 mph 26.5 mph N/A   Overcast
9:55 AM 39.2 °F 29.3 °F 33.8 °F 81% 29.93 in 10.0 mi SSE 20.7 mph 27.6 mph N/A   Overcast
10:15 AM 39.2 °F 29.3 °F 35.6 °F 87% 29.93 in 10.0 mi SSE 20.7 mph - N/A   Overcast
10:35 AM 39.2 °F 29.3 °F 35.6 °F 87% 29.92 in 10.0 mi SSE 20.7 mph - N/A   Overcast
10:55 AM 41.0 °F 32.2 °F 35.6 °F 81% 29.92 in 10.0 mi SSE 18.4 mph 25.3 mph N/A   Overcast
11:15 AM 41.0 °F 31.6 °F 35.6 °F 81% 29.92 in 10.0 mi SSE 20.7 mph 26.5 mph N/A   Mostly Cloudy
11:35 AM 41.0 °F 31.9 °F 35.6 °F 81% 29.91 in 10.0 mi SSE 19.6 mph - N/A   Clear
11:55 AM 41.0 °F 31.1 °F 35.6 °F 81% 29.89 in 10.0 mi SSE 23.0 mph - N/A   Scattered Clouds
12:15 PM 41.0 °F 32.2 °F 35.6 °F 81% 29.88 in 10.0 mi South 18.4 mph 25.3 mph N/A   Scattered Clouds
12:35 PM 42.8 °F 34.8 °F 37.4 °F 81% 29.88 in 10.0 mi SSE 17.3 mph 24.2 mph N/A   Scattered Clouds
12:55 PM 42.8 °F 34.5 °F 35.6 °F 76% 29.87 in 10.0 mi South 18.4 mph 26.5 mph N/A   Partly Cloudy
1:15 PM 42.8 °F 35.1 °F 35.6 °F 76% 29.87 in 10.0 mi South 16.1 mph 23.0 mph N/A   Partly Cloudy
1:35 PM 42.8 °F 34.8 °F 35.6 °F 76% 29.86 in 10.0 mi South 17.3 mph - N/A   Partly Cloudy
1:55 PM 42.8 °F 34.5 °F 37.4 °F 81% 29.85 in 10.0 mi South 18.4 mph 25.3 mph N/A   Partly Cloudy
2:15 PM 42.8 °F 34.8 °F 37.4 °F 81% 29.85 in 10.0 mi South 17.3 mph 25.3 mph N/A   Scattered Clouds
2:35 PM 42.8 °F 34.3 °F 35.6 °F 76% 29.84 in 10.0 mi South 19.6 mph 26.5 mph N/A   Mostly Cloudy
2:55 PM 42.8 °F 34.5 °F 35.6 °F 76% 29.84 in 10.0 mi South 18.4 mph 24.2 mph N/A   Overcast
3:15 PM 42.8 °F 35.1 °F 35.6 °F 76% 29.84 in 10.0 mi SSE 16.1 mph 23.0 mph N/A   Overcast
3:35 PM 42.8 °F 36.2 °F 37.4 °F 81% 29.86 in 10.0 mi South 12.7 mph 19.6 mph N/A   Overcast
3:55 PM 42.8 °F 36.2 °F 37.4 °F 81% 29.86 in 10.0 mi SSE 12.7 mph - N/A   Overcast
4:15 PM 41.0 °F 33.9 °F 35.6 °F 81% 29.87 in 10.0 mi South 12.7 mph - N/A   Mostly Cloudy
4:35 PM 41.0 °F 34.7 °F 35.6 °F 81% 29.88 in 10.0 mi SSE 10.4 mph - N/A   Scattered Clouds
4:55 PM 39.2 °F 33.0 °F 35.6 °F 87% 29.88 in 10.0 mi SSE 9.2 mph - N/A   Partly Cloudy
5:15 PM 39.2 °F 33.6 °F 35.6 °F 87% 29.89 in 10.0 mi SSE 8.1 mph - N/A   Clear
5:35 PM 37.4 °F 32.8 °F 33.8 °F 87% 29.90 in 10.0 mi SE 5.8 mph - N/A   Clear
5:55 PM 35.6 °F - 33.8 °F 93% 29.90 in 10.0 mi North - - N/A   Clear
6:15 PM 35.6 °F 29.9 °F 33.8 °F 93% 29.91 in 10.0 mi SE 6.9 mph - N/A   Clear
6:35 PM 35.6 °F 30.7 °F 33.8 °F 93% 29.92 in 10.0 mi SE 5.8 mph - N/A   Clear
6:55 PM 33.8 °F 27.0 °F 33.8 °F 100% 29.91 in 10.0 mi SE 8.1 mph - N/A   Clear
7:15 PM 33.8 °F 27.0 °F 33.8 °F 100% 29.92 in 10.0 mi SE 8.1 mph - N/A   Clear
7:35 PM 33.8 °F 27.7 °F 33.8 °F 100% 29.92 in 10.0 mi SE 6.9 mph - N/A   Clear
7:55 PM 33.8 °F 27.7 °F 32.0 °F 93% 29.93 in 9.0 mi SE 6.9 mph - N/A   Clear
8:15 PM 33.8 °F 27.7 °F 32.0 °F 93% 29.93 in 8.0 mi SE 6.9 mph - N/A   Clear
8:35 PM 33.8 °F 27.7 °F 32.0 °F 93% 29.93 in 7.0 mi SE 6.9 mph - N/A   Clear
8:55 PM 33.8 °F 27.0 °F 32.0 °F 93% 29.94 in 7.0 mi SE 8.1 mph - N/A   Clear
9:15 PM 33.8 °F 27.7 °F 32.0 °F 93% 29.94 in 5.0 mi SE 6.9 mph - N/A   Clear
9:35 PM 33.8 °F 27.0 °F 33.8 °F 100% 29.95 in 4.0 mi SE 8.1 mph - N/A   Clear
9:55 PM 33.8 °F 27.0 °F 33.8 °F 100% 29.95 in 4.0 mi SE 8.1 mph - N/A   Clear
10:15 PM 33.8 °F 26.4 °F 33.8 °F 100% 29.95 in 4.0 mi SE 9.2 mph - N/A   Clear
10:35 PM 33.8 °F 27.0 °F 33.8 °F 100% 29.96 in 4.0 mi SE 8.1 mph - N/A   Clear
10:55 PM 33.8 °F 26.4 °F 33.8 °F 100% 29.96 in 4.0 mi SE 9.2 mph - N/A   Clear
11:15 PM 33.8 °F 27.0 °F 33.8 °F 100% 29.96 in 5.0 mi SE 8.1 mph - N/A   Clear
11:35 PM 33.8 °F 27.0 °F 33.8 °F 100% 29.97 in 4.0 mi SE 8.1 mph - N/A   Clear
11:55 PM 33.8 °F 27.0 °F 33.8 °F 100% 29.97 in 5.0 mi SSE 8.1 mph - N/A   Clear